Regional Weather Roundup
Issued by NWS San Diego, CA

Home | Current Version | Previous Version | Text Only | Print | Product List | Glossary On
Versions: 1 2 3 4 5 6 7 8 9 10 11 12 13 14 15 16 17 18 19 20 21 22 23 24 25 26 27 28 29 30 31 32 33 34 35 36 37 38 39 40 41 42 43 44 45 46 47 48 49 50
000
ASUS46 KSGX 050411
RWRSGX

SAN DIEGO HOURLY WEATHER ROUNDUP
NATIONAL WEATHER SERVICE SAN DIEGO CA
900 PM PDT WED MAY 04 2016

NOTE: "FAIR" INDICATES FEW OR NO CLOUDS BELOW 12,000 FEET WITH NO
SIGNIFICANT WEATHER AND/OR OBSTRUCTIONS TO VISIBILITY.

CAZ042-043-060-061-PZZ750-775-050500-

GREATER SAN DIEGO AREA

CITY           SKY/WX    TMP DP  RH WIND       PRES   REMARKS
LINDBERGH FLD  MOCLDY    62  51  67 W6        29.96R
POINT LOMA       N/A     57  49  75 SW3         N/A
NATIONAL CITY    N/A     62  54  75 CALM      29.96R
CHULA VISTA      N/A     61  54  78 W3        29.88R
IMPERIAL BEACH MOCLDY    63  51  65 W5        29.96R
BROWN FIELD    MOCLDY    58  51  78 CALM      29.95R
MIRAMAR MCAS   MOCLDY    60  49  66 W6        29.94R
MONTGOMERY FLD PTCLDY    60  50  69 W5        29.95R

$$

NORTH SAN DIEGO COUNTY

CITY           SKY/WX    TMP DP  RH WIND       PRES   REMARKS
CAMP PENDLETON MOCLDY    59  52  77 CALM      29.95R
OCEANSIDE AP   CLEAR     58  50  75 CALM      29.94R
OCEANSIDE HBR    N/A     60  55  82 CALM      29.97R
VISTA            N/A     58  52  80 CALM      29.93R
CARLSBAD       CLEAR     60  52  74 W5        29.94R
DEL MAR          N/A     57  53  85 CALM      29.98R
LA JOLLA SCRIP   N/A     59  53  80 SW1       29.95R
FALLBROOK        N/A     58  55  88 CALM      29.93R
ESCONDIDO        N/A     61  53  74 SW3       29.96R
SAN MARCOS       N/A     58  49  71 CALM      29.93R
POWAY            N/A     61  53  74 CALM      29.95R

$$

EAST SAN DIEGO COUNTY

CITY           SKY/WX    TMP DP  RH WIND       PRES   REMARKS
RAMONA         CLOUDY    57  50  77 W5        29.94R
SANTEE LAKES     N/A     61  54  77 W3        29.93R
LA MESA          N/A     60  52  76 CALM      29.88R
JAMUL            N/A     58  51  77 CALM      29.94R
DESCANSO N       N/A     53  50  89 CALM      29.76R
MT. LAGUNA OBS   N/A     51  37  59 SW3       29.60
CAMPO            N/A     52  48  86 S7        29.91R

$$

ORANGE COUNTY AND THE LOS ANGELES BASIN

CITY           SKY/WX    TMP DP  RH WIND       PRES   REMARKS
JOHN WAYNE AP  MOCLDY    60  52  74 SW8       29.94R
LAKE FOREST FR   N/A     58  50  77 CALM      29.84R
HUNTINGTON BCH   N/A     60  54  80 W7        29.96R
LOS ALAMITOS   FAIR      60  53  79 SW7       29.94R
FULLERTON      CLOUDY    61  32  33 S6        29.93R
LONG BEACH     MOCLDY    61  52  72 NW8       29.93R
L.A. AP        MOCLDY    60  51  72 SW7       29.93R
L.A. DOWNTOWN  PTCLDY    60  52  74 W5        29.93R

$$

THE INLAND EMPIRE

CITY           SKY/WX    TMP DP  RH WIND       PRES   REMARKS
CORONA         CLEAR     60  52  74 W9G17     29.92R
CHINO          CLEAR     59  51  75 W12       29.94R
ONTARIO        PTCLDY    61  51  70 W8        29.92R
SAN BERNARDINO MOCLDY    82  52  34 SW5       29.93R
RIVERSIDE AP   CLEAR     62  51  67 NW3       29.92R
MORENO VALLEY    N/A     61  55  80 W1        28.04R
MARCH ARB      CLEAR     59  50  73 SE8       29.93R
HORSETHIEF CYN   N/A     60  47  62 S3        29.94R
PERRIS           N/A     58  52  81 S6        29.89R
HEMET EAST       N/A     85  34  15 CALM      29.81S
FRENCH VALLEY  FAIR      55  48  76 S5        29.95R
TEMECULA         N/A     58  53  83 SW2       29.90R

$$

SAN BERNARDINO AND RIVERSIDE COUNTY MOUNTAINS

CITY           SKY/WX    TMP DP  RH WIND       PRES   REMARKS
BIG BEAR AP    CLEAR     48  36  61 CALM      30.05R
PINE COVE        N/A     50  42  72 CALM      29.80S

$$

SOUTHERN DESERT INCLUDING THE COACHELLA VALLEY

CITY           SKY/WX    TMP DP  RH WIND       PRES   REMARKS
PALM SPRINGS   PTCLDY    78  47  33 NW22G29   29.74R
THOUSAND PALMS   N/A     77  47  34 W20       29.71R
PALM DESERT      N/A     81  49  32 N3          N/A
THERMAL        PTCLDY    82  46  28 NW14G25   29.68R
BLYTHE         MOCLDY    88  35  15 SW16      29.73R
IMPERIAL AP    CLOUDY    79  49  34 W8        29.72R
EL CENTRO NAS  CLOUDY    80  47  31 W14       29.73R
YUMA AZ        MOCLDY    82  34  17 SE7       29.74R
MEXICALI       PTCLDY    77  46  33 SE13      29.72R

$$

UPPER DESERT

CITY           SKY/WX    TMP DP  RH WIND       PRES   REMARKS
VICTORVILLE AP CLEAR     63  45  51 S26       29.88S
HESPERIA         N/A     59  47  63 W8        29.92R
PALMDALE       PTCLDY    63  41  44 W17       29.88R
LANCASTER      PTCLDY    64  46  52 SW18      29.89S
EDWARDS AFB    MOCLDY    65  45  48 SW21      29.84R
DAGGETT        PTCLDY    76  43  30 NW14G20   29.79R
29 PALMS N     PTCLDY    77  37  23 SW15      29.86R
NEEDLES        CLOUDY    89  28  11 SW6       29.72R

$$

REGIONAL REPORTS

CITY           SKY/WX    TMP DP  RH WIND       PRES   REMARKS
SANTA BARBARA  PTCLDY    56  53  90 W5        29.92R
SANDBERG       PTCLDY    53  44  71 S13G22    29.95R
LAS VEGAS NV   MOCLDY    85  26  11 S5        29.75R
PHOENIX AZ     CLEAR     90  22   8 W18G24    29.75R
TIJUANA        CLOUDY    59  48  67 W6        29.96R
ENSENADA NW      N/A     60  32  34 NW3       29.93R

$$

OFFSHORE ISLANDS

CITY           SKY/WX    TMP DP  RH WIND       PRES   REMARKS
CATALINA ARPT  CLEAR     51  48  89 W3        29.95R
SAN NICOLAS IS MOCLDY   N/A N/A N/A SW10      29.93R

$$

MARINE AND OFFSHORE BUOY REPORTS

STATION/POSITION SKY/WX   TEMP    WIND        PRES    SWELL
                          AIR SEA DIR/SP/G            HT/PER/DIR
                          (F)     (DEG/KT/KT) (MB)    (FT/S/D)
TANNER BANKS               61 63  270/  6/  8 1013.4R   5/180/15
S CLEMENTE BASIN           60 62   CALM  /  2 1013.8R   3/240/13
SAN NICOLAS IS.               60                N/A     3/280/13
SO. S. ROSA ISLA           57 57  230/  6/  8 1013.2R   5/270/12
W. S. BARBARA CH           57 57  320/  2/  2 1012.7R   3/260/11
M. S. BARBARA CH           58 58  270/ 10/ 12 1013.0R
S. MONICA BASIN            59 61  240/  6/  8 1013.5R   3/220/12
S PEDRO CHANNEL               60                N/A     2/220/13
OCEANSIDE OFFSHR              65                N/A     3/200/13
TORREY PINES OTR              65                N/A     3/230/13
LA JOLLA 1                    67              1013.5R
SAN DIEGO BAY                 68              1014.0R
POINT LOMA SOUTH              63                N/A     3/210/13

$$




USA.gov is the U.S. government's official web portal to all federal, state and local government web resources and services.